Flag for Germany Weather past 2 weeks in Leipzig, Saxony, Germany

Now
48 °F

Broken clouds.


Feels Like: 44 °F
Forecast: 34 / 55 °F
Wind: 10 mph from Northwest

Location: Leipzig-Schkeuditz

Current Time: Apr 18, 2015 at 1:52:19 PM

Latest Report: Apr 18, 2015 at 1:20 PM


Visibility: N/A

Pressure: 30.30 "Hg

Humidity: 54%

Dew point: 32 °F

Location of LeipzigLocation

Historic Weather in Leipzig — Graph

°F

Leipzig temperature yesterday

Maximum temperature yesterday: 50 °F (at 4:20 PM)
Minimum temperature yesterday: 41 °F (at 6:50 AM)
Average temperature yesterday: 45 °F

Past Weeks' High & Low Weather Summary

 TemperatureHumidityPressure
High73 °F (Apr 15, 2:50 PM)100% (Apr 5, 1:20 AM)30.57 "Hg (Apr 5, 1:20 AM)
Low28 °F (Apr 4, 4:50 AM)24% (Apr 12, 1:50 PM)29.89 "Hg (Apr 15, 5:50 PM)
Average48 °F66%30.21 "Hg
* Reported Apr 3 12:20 PM — Apr 18 12:50 PM, Leipzig, Weather by CustomWeather, © 2015

Note: Actual official high and low records may vary slightly from our data, if they occured in-between our weather recording intervals... More about our weather records

Advertising

Leipzig weather history for previous 24 hours

 ConditionsComfort  
Time TempWeatherWind HumidityBarometerVisibility
12:50 PM
Sat, Apr 18
46 °FPartly sunny.7 mph53%30.30 "HgN/A
12:20 PM48 °FPartly sunny.7 mph50%30.30 "HgN/A
11:50 AM46 °FPartly sunny.9 mph62%30.30 "HgN/A
11:20 AM46 °FPartly sunny.9 mph57%30.30 "HgN/A
10:50 AM45 °FPartly sunny.7 mph66%30.30 "HgN/A
10:20 AM43 °FScattered clouds.6 mph76%30.27 "HgN/A
9:50 AM43 °FScattered clouds.6 mph76%30.27 "HgN/A
9:20 AM41 °FScattered clouds.7 mph81%30.27 "HgN/A
8:50 AM39 °FScattered clouds.7 mph87%30.27 "HgN/A
8:20 AM37 °FScattered clouds.8 mph93%30.24 "HgN/A
7:50 AM36 °FSunny.8 mph93%30.24 "Hg10 mi
7:20 AM36 °FPassing clouds.7 mph93%30.24 "HgN/A
6:50 AM34 °FPassing clouds.7 mph100%30.21 "HgN/A
6:20 AM34 °FClear.6 mph93%30.21 "Hg10 mi
5:50 AM34 °FClear.7 mph93%30.21 "Hg10 mi
5:20 AM36 °FClear.9 mph93%30.18 "Hg10 mi
4:50 AM36 °FClear.8 mph87%30.18 "Hg10 mi
4:20 AM36 °FClear.9 mph87%30.18 "Hg10 mi
3:50 AM36 °FClear.8 mph87%30.18 "Hg10 mi
3:20 AM36 °FClear.8 mph87%30.15 "Hg10 mi
2:50 AM37 °FClear.9 mph81%30.15 "Hg10 mi
2:20 AM37 °FClear.9 mph81%30.15 "Hg10 mi
1:50 AM37 °FClear.8 mph81%30.15 "Hg10 mi
1:20 AM37 °FClear.7 mph75%30.12 "Hg10 mi
12:50 AM39 °FClear.8 mph70%30.12 "Hg10 mi
12:20 AM41 °FClear.7 mph66%30.09 "Hg10 mi
11:50 PM
Fri, Apr 17
41 °FClear.10 mph66%30.09 "Hg10 mi
11:20 PM43 °FClear.9 mph61%30.09 "Hg10 mi
10:50 PM43 °FClear.9 mph61%30.09 "Hg10 mi
10:20 PM41 °FClear.7 mph66%30.07 "Hg10 mi
9:50 PM41 °FClear.7 mph66%30.07 "Hg10 mi
9:20 PM43 °FClear.8 mph61%30.04 "Hg10 mi
8:50 PM43 °FSunny.7 mph61%30.04 "Hg10 mi
8:20 PM46 °FSunny.9 mph53%30.04 "Hg10 mi
7:50 PM46 °FSunny.9 mph53%30.01 "Hg10 mi
7:20 PM48 °FPartly sunny.8 mph54%30.01 "HgN/A
6:50 PM48 °FPartly sunny.10 mph58%30.01 "HgN/A
6:20 PM50 °FPartly sunny.9 mph58%30.01 "HgN/A
5:50 PM48 °FPartly sunny.10 mph62%30.01 "HgN/A
5:20 PM48 °FPartly sunny.13 mph62%30.01 "HgN/A
4:50 PM48 °FBroken clouds.12 mph58%30.01 "HgN/A
4:20 PM50 °FPartly sunny.12 mph58%29.98 "HgN/A
3:50 PM48 °FBroken clouds.17 mph62%30.01 "HgN/A
3:20 PM48 °FBroken clouds.13 mph58%29.98 "HgN/A
2:50 PM48 °FBroken clouds.14 mph62%29.98 "HgN/A
2:20 PM48 °FBroken clouds.14 mph58%29.98 "HgN/A
1:50 PM48 °FBroken clouds.14 mph62%29.98 "HgN/A
1:20 PM48 °FPartly sunny.14 mph62%29.98 "HgN/A
Weather by CustomWeather, © 2015

See weather overviewHow to use our weather pages